Skip to main content Skip to accessibility
This website is not compatible with your web browser. You should install a newer browser. If you live in Jersey and need help upgrading call the States of Jersey web team on 440099.
Homegov.je

L'înformâtion et les sèrvices publyis pouor I'Île dé Jèrri

  • Choose the service you want to log in to:

  • gov.je

    Update your notification preferences

  • one.gov.je

    Access government and parish services

  • CAESAR

    Clear goods through customs or claim relief

  • Talentlink

    View or update your States of Jersey job application

Local METARs

METAR EGJJ 181550Z 26014KT 9999 FEW014 OVC030 18/15 Q1024

METAR EGJB 181550Z 24014KT 9999 FEW012 19/15 Q1023

METAR EGJA 181550Z 23012KT 9999 FEW030 18/15 Q1023

METAR LFRD 181530Z AUTO 34010KT 9999 FEW023 BKN034 20/14 Q1024 NOSIG

METAR LFRC 181530Z AUTO 25011KT 9999 SCT019 BKN034 19/14 Q1023 TEMPO BKN013

 

 

 

​Times are in Greenwich Mean Time (GMT) and not British Summer Time (BST). They will be one hour different during BST.

Back to top
rating button